TimeCST,TemperatureF,Dew PointF,Humidity,Sea Level PressureIn,VisibilityMPH,Wind Direction,Wind SpeedMPH,Gust SpeedMPH,PrecipitationIn,Events,Conditions,WindDirDegrees,DateUTC
12:53 AM,37.0,23.0,57,30.12,10.0,ENE,9.2,-,N/A,,Clear,70,2013-03-07 06:53:00
1:53 AM,36.0,23.0,59,30.11,10.0,ESE,11.5,-,N/A,,Clear,110,2013-03-07 07:53:00
2:53 AM,36.0,21.9,57,30.09,10.0,ESE,11.5,-,N/A,,Clear,120,2013-03-07 08:53:00
3:53 AM,39.0,21.9,50,30.06,10.0,SE,15.0,-,N/A,,Clear,140,2013-03-07 09:53:00
4:53 AM,39.0,21.9,50,30.06,10.0,SE,10.4,-,N/A,,Clear,140,2013-03-07 10:53:00
5:53 AM,37.9,21.9,53,30.07,10.0,SSE,9.2,-,N/A,,Clear,150,2013-03-07 11:53:00
6:53 AM,37.0,23.0,57,30.08,10.0,SSE,9.2,-,N/A,,Clear,150,2013-03-07 12:53:00
7:53 AM,41.0,24.1,51,30.10,10.0,SSE,11.5,-,N/A,,Clear,160,2013-03-07 13:53:00
8:53 AM,48.9,23.0,36,30.11,10.0,South,19.6,-,N/A,,Clear,170,2013-03-07 14:53:00
9:53 AM,55.9,21.9,27,30.10,10.0,South,20.7,27.6,N/A,,Clear,170,2013-03-07 15:53:00
10:53 AM,60.1,21.0,22,30.09,10.0,South,17.3,-,N/A,,Clear,180,2013-03-07 16:53:00
11:53 AM,64.9,21.0,19,30.07,10.0,South,19.6,24.2,N/A,,Clear,190,2013-03-07 17:53:00
12:53 PM,66.9,23.0,19,30.04,10.0,South,20.7,-,N/A,,Clear,190,2013-03-07 18:53:00
1:53 PM,70.0,25.0,18,30.00,10.0,South,17.3,-,N/A,,Clear,180,2013-03-07 19:53:00
2:53 PM,72.0,23.0,16,29.97,10.0,South,20.7,24.2,N/A,,Clear,180,2013-03-07 20:53:00
3:53 PM,73.9,25.0,16,29.96,10.0,SSE,20.7,25.3,N/A,,Clear,160,2013-03-07 21:53:00
4:53 PM,73.0,25.0,17,29.94,10.0,SSE,20.7,25.3,N/A,,Clear,150,2013-03-07 22:53:00
5:53 PM,70.0,28.0,21,29.95,10.0,SSE,12.7,-,N/A,,Clear,150,2013-03-07 23:53:00
6:53 PM,61.0,30.9,32,29.98,10.0,SE,11.5,-,N/A,,Clear,130,2013-03-08 00:53:00
7:53 PM,57.9,33.1,39,29.98,10.0,SE,12.7,-,N/A,,Clear,140,2013-03-08 01:53:00
8:53 PM,55.9,36.0,47,29.99,10.0,ESE,10.4,-,N/A,,Clear,120,2013-03-08 02:53:00
9:53 PM,57.0,37.9,49,29.99,10.0,SE,12.7,-,N/A,,Clear,140,2013-03-08 03:53:00
10:53 PM,57.9,41.0,53,30.00,10.0,SE,13.8,-,N/A,,Clear,140,2013-03-08 04:53:00
11:53 PM,57.0,41.0,55,29.99,10.0,SSE,12.7,-,N/A,,Clear,150,2013-03-08 05:53:00